Location: Le Lombard
(44.8028°N, 6.8523°E)
Time: 12:04:21
(UTC+00:00)

Daily predictions for brighter satellites

Satellite Brightness Start Highest point End
(mag) Time Altitude Azimuth Time Altitude Azimuth Time Altitude Azimuth
Meteor 1-18 Rocket 4.4 18:06:03 10° N 18:11:58 67° ENE 18:17:46 10° SSE
Cosmos 2333 Rocket 3.7 18:07:06 10° SW 18:12:34 43° WNW 18:18:04 10° NNE
SeaSat 1 3.2 18:10:08 10° NNE 18:14:59 58° WNW 18:19:47 10° SW
Iridium 4 Rocket 3.3 18:11:12 10° N 18:15:11 44° E 18:19:10 10° SSE
Cosmos 1151 Rocket 3.1 18:11:43 10° N 18:16:00 84° W 18:20:14 10° S
Meteor 1-5 Rocket 4.5 18:15:48 10° SSW 18:21:28 80° W 18:27:21 10° N
Cosmos 1937 Rocket 4.4 18:17:53 10° NNW 18:23:03 55° WSW 18:28:11 10° S
NOSS 0 Rocket 4.3 18:20:03 10° S 18:25:51 43° ESE 18:31:42 10° NE
Cosmos 1943 Rocket 3.1 18:23:13 10° N 18:27:59 29° NE 18:32:34 11° ESE
USA 276 2.8 18:25:18 10° NW 18:28:01 36° NNE 18:30:24 11° E
ACS3 Solar Sail 3.0 18:25:01 10° ESE 18:30:03 25° ENE 18:35:04 10° N
Cosmos 2322 3.7 18:25:27 10° SSW 18:31:06 89° ESE 18:36:48 10° NNE
Cosmos 1400 Rocket 2.6 18:28:24 10° N 18:32:13 71° ENE 18:35:58 10° SSE
Cosmos 2233 Rocket 4.1 18:26:06 10° S 18:32:14 81° W 18:38:26 10° N
BlueWalker 3 1.9 18:30:45 10° WNW 18:34:30 82° SW 18:37:58 12° SE
Cosmos 1066 Rocket 4.3 18:28:57 10° N 18:34:50 78° ENE 18:40:38 10° SSE
Cosmos 1726 2.0 18:32:16 10° SSW 18:35:01 60° W 18:37:46 10° N
Resurs 1-3 3.5 18:31:15 10° SSE 18:35:34 78° ENE 18:39:54 10° N
SAR-Lupe-2 3.7 18:40:00 10° S 18:43:34 75° WSW 18:47:09 10° NNW
Cosmos 1315 Rocket 4.2 18:44:55 10° NNE 18:47:55 20° ENE 18:49:14 17° E
Cosmos 1464 Rocket 4.3 18:42:23 10° SSE 18:48:17 44° E 18:54:16 10° NNE
Meteor PRIRODA 3.3 18:45:04 10° SSE 18:48:20 88° E 18:51:39 10° NNW
Cosmos 1125 Rocket 4.1 18:47:01 10° N 18:51:53 39° ENE 18:55:24 17° ESE
Cosmos 1536 3.0 18:49:32 10° SSE 18:53:07 41° E 18:56:45 10° NNE
Cosmos 1842 3.0 18:49:35 10° N 18:53:12 66° E 18:56:47 10° SSE
Okean 3 Rocket 3.8 18:49:15 10° SSE 18:53:33 48° E 18:57:50 10° NNE
USA 59 Rocket 0.2 18:50:53 10° NW 18:54:52 83° SW 19:00:05 12° SSE
COSMOS 2428 3.0 18:49:14 10° SSW 18:54:56 74° WNW 19:00:42 10° NNE
Cosmos 1707 2.5 18:53:30 10° N 18:57:01 58° E 19:00:08 12° SSE
Cosmos 1515 Rocket 3.8 18:53:06 10° N 18:57:17 46° ENE 19:00:44 14° SSE
Okean O Rocket 2.5 18:57:42 20° ESE 18:59:57 32° ENE 19:03:53 10° N
Feng Yun 1-1 Rocket 4.5 18:55:16 10° SE 19:00:52 56° ENE 19:06:37 10° N
CZ-4B DEB 4.4 19:02:15 10° S 19:07:45 75° WSW 19:13:16 10° NNW
Cosmos 2278 Rocket 2.1 19:02:15 10° NNW 19:07:57 80° ENE 19:12:39 15° SSE
USA 306 4.0 19:05:09 10° W 19:07:58 30° NNW 19:11:12 10° NE
CZ-4 R/B 1.4 19:05:04 10° S 19:08:51 76° WSW 19:12:45 10° NNW
Meteor 2-9 Rocket 4.4 19:04:30 10° SSE 19:09:30 42° E 19:14:35 10° NNE
Cosmos 2034 Rocket 4.3 19:04:45 10° SSE 19:10:33 43° E 19:16:20 10° NNE
Meteor 1-13 Rocket 4.4 19:04:52 10° N 19:10:38 55° ENE 19:14:59 17° SSE
CZ-4B R/B 3.1 19:06:53 10° SSE 19:12:14 71° ENE 19:17:36 10° N
Cosmos 1500 Rocket 4.2 19:10:44 25° SE 19:12:23 33° E 19:16:19 10° NNE
Cosmos 1766 Rocket 4.4 19:09:00 10° SSW 19:13:15 53° WNW 19:17:34 10° N
Cosmos 1072 Rocket 4.5 19:07:39 10° S 19:14:03 75° E 19:20:26 10° NNE
Resurs 01 Rocket 1.5 19:10:19 12° SSE 19:14:21 80° ENE 19:18:49 10° N
NOSS 3-3 (C) 4.0 19:10:10 10° S 19:15:04 41° ESE 19:20:43 10° NE
NOSS 2-1 (C) 4.3 19:11:17 10° NW 19:15:12 55° SW 19:19:46 14° SSE
Meteor 2-10 4.2 19:10:49 10° S 19:16:18 63° E 19:21:57 10° NNE
ADEOS 4.5 19:11:59 10° S 19:17:01 49° W 19:22:05 10° NNW
Meteor 2-17 Rocket 4.4 19:11:11 10° N 19:17:17 86° W 19:23:21 10° S
Helios 1A 3.6 19:13:30 10° N 19:17:29 55° WNW 19:21:26 10° SSW
GEOS 3 Rocket 3.6 19:13:39 19° SE 19:17:30 83° SW 19:22:43 10° NW
USA 290 2.9 19:14:59 10° NNW 19:18:13 55° WSW 19:20:16 20° S
Cosmos 1743 Rocket 4.4 19:19:19 29° E 19:19:19 29° E 19:22:52 10° NNE
USA 186 1.8 19:17:45 21° S 19:19:43 77° WSW 19:22:58 10° NNW
PAYLOAD B 4.4 19:15:17 10° S 19:20:52 76° WSW 19:26:30 10° NNW
MOS 1-B 4.3 19:17:39 17° SSE 19:22:06 68° ENE 19:27:52 10° N
SPOT 5 3.6 19:22:14 29° E 19:22:59 30° ENE 19:26:53 10° N
Okean-O 3.4 19:23:05 31° E 19:23:44 32° ENE 19:27:40 10° N
Cosmos 2208 Rocket 4.1 19:20:21 10° S 19:25:26 53° ESE 19:30:37 10° NNE
Cosmos 1408 Rocket 3.5 19:22:58 10° S 19:27:16 64° E 19:31:39 10° NNE
CZ-4B R/B 3.8 19:25:17 10° S 19:28:58 45° W 19:32:52 10° NNW
NOSS 3-3 (A) 3.7 19:24:02 10° SSW 19:29:10 56° ESE 19:35:08 10° NE
ISS -3.5 19:26:14 10° WSW 19:29:34 66° NNW 19:30:43 37° NE
Cosmos 2237 Rocket 2.2 19:28:18 10° SSW 19:33:55 87° WNW 19:39:35 10° NNE
CSL-04 Rocket 3.6 19:31:45 16° SSE 19:36:03 83° WSW 19:41:24 10° NNW
Aureole 3 Rocket 3.8 19:29:21 10° S 19:36:20 60° E 19:41:20 10° NNE
Cosmos 1607 4.4 19:31:03 10° S 19:36:55 38° ESE 19:42:47 10° NE
Meteor 1-11 Rocket 3.7 19:39:44 10° SSW 19:45:23 82° W 19:50:57 10° N
Lacrosse 4 Rocket 4.4 19:44:10 10° W 19:45:51 12° WSW 19:47:33 10° SW
MOS 1 Rocket 3.9 19:45:39 41° E 19:46:12 42° ENE 19:51:09 10° N
IKONOS-2 4.4 19:43:12 10° NNE 19:47:22 84° WNW 19:50:24 18° SSW
Cosmos 158 Rocket 3.9 19:45:56 10° SSW 19:50:48 78° WNW 19:55:41 10° NNE
ATLAS CENTAUR R/B 1.5 19:47:43 10° SW 19:51:13 58° NW 19:54:53 10° NNE
Cosmos 1805 Rocket 3.3 19:52:47 63° SSE 19:53:25 80° E 19:57:45 10° N
Cosmos 1428 Rocket 4.4 19:53:15 10° N 19:59:24 89° WSW 20:02:19 33° S
USA 276 4.3 19:59:28 10° WNW 20:00:38 21° W 20:00:38 21° W
SL-24 R/B 4.2 20:01:56 67° ESE 20:02:19 71° E 20:07:07 10° N
Cosmos 2369 Rocket 3.1 19:59:47 10° N 20:04:56 33° NE 20:05:11 33° ENE
Sich 1 3.3 20:07:33 46° SW 20:08:37 65° W 20:12:55 10° N
Meteor 1-21 4.2 20:03:57 10° N 20:09:43 69° ENE 20:10:23 62° ESE
Cosmos 1943 Rocket 2.9 20:06:39 10° NW 20:11:55 48° WSW 20:14:06 31° SSW
BlueWalker 3 4.5 20:10:17 10° W 20:11:59 13° SW 20:12:13 13° SW
Terra 2.5 20:13:52 41° NE 20:13:52 41° NE 20:17:27 10° N
ACS3 Solar Sail 2.2 20:09:36 24° S 20:13:34 64° W 20:19:57 10° NNW
ERS-1 Rocket 3.1 20:14:03 56° NE 20:14:03 56° NE 20:18:37 10° N
Cosmos 2298 Rocket 4.0 20:10:30 10° NNW 20:15:49 80° WSW 20:16:27 68° S
Cosmos 1975 4.4 20:18:58 26° N 20:18:58 26° N 20:20:47 10° N
Cosmos 2150 Rocket 3.9 20:12:20 10° NNW 20:17:31 77° WSW 20:17:56 71° SSW
USA 32 4.3 20:12:47 10° N 20:18:00 67° W 20:19:24 47° SSW
Cosmos 1805 4.5 20:21:37 38° NW 20:21:37 38° NW 20:24:29 10° N
Ariane Rocket 3.9 20:24:21 37° NE 20:24:21 37° NE 20:28:01 10° N
Cosmos 1315 Rocket 4.3 20:20:29 10° NNW 20:24:03 32° W 20:24:27 31° WSW
Cosmos 2026 Rocket 4.0 20:18:01 10° N 20:24:15 78° W 20:25:51 52° S
Cosmos 1092 Rocket 4.0 20:18:23 10° N 20:24:45 80° W 20:26:28 51° S
IRS-1A Rocket 4.1 20:26:28 77° SE 20:26:51 85° ENE 20:32:36 10° NNW
Meteor 2-12 Rocket 4.3 20:21:52 10° N 20:28:04 89° W 20:28:56 68° S
SL-16 R/B 2.3 20:35:16 63° NNE 20:35:16 63° NNE 20:40:01 10° NNE
Okean O Rocket 3.4 20:35:02 24° WSW 20:36:12 27° W 20:39:59 10° NW
Cosmos 1634 Rocket 4.0 20:36:31 53° SSW 20:38:07 79° W 20:44:29 10° N
Cosmos 1656 Rocket 3.8 20:36:15 10° NNW 20:41:19 70° N 20:41:19 70° N
USA 59 Rocket 3.1 20:42:51 10° W 20:44:17 11° WSW 20:45:50 10° SW
IRS-1C Rocket 4.3 20:45:02 69° NW 20:45:02 69° NW 20:49:48 10° NNW
Cosmos 2228 Rocket 4.5 20:52:23 10° NNW 20:55:20 37° NW 20:55:20 37° NW
SPOT 3 Rocket 4.4 21:00:55 45° N 21:00:55 45° N 21:04:27 10° NNW
SPOT 5 4.4 21:01:22 29° W 21:01:22 29° W 21:04:54 10° NW
USA 267 3.8 21:08:22 47° NE 21:08:53 48° NNE 21:15:07 10° NW
Cosmos 2279 Rocket 4.4 21:20:00 56° WNW 21:20:00 56° WNW 21:25:53 10° N
NOSS 3-4 (A) 4.3 21:39:02 10° NW 21:44:37 53° W 21:44:37 53° W
NOSS 3-4 (C) 4.3 21:39:07 10° NW 21:44:43 54° W 21:44:43 54° W
Cosmos 2369 Rocket 3.8 21:43:41 10° NW 21:46:58 31° WNW 21:46:58 31° WNW
Terra 4.3 21:52:34 16° WNW 21:52:34 16° WNW 21:54:12 10° NW
ATLAS 2AS CENTAUR R/B 4.1 22:31:17 10° NNW 22:36:30 30° NNE 22:36:30 30° NNE
Cosmos 2344 4.3 23:20:59 10° NW 23:27:14 59° NW 23:27:14 59° NW
